QPF
0.00 0.00 0.00 0.00 0.00 0.00 0.00 0.00 0.00 0.00 0.00 0.00 0.00 0.00 0.00 0.00 0.00 0.00 0.00 0.00 0.00 0.00 0.00 0.00 0.00 0.00 0.00 0.00 0.00 0.00 0.00 0.00 0.00 0.00 0.00 0.00 0.00 0.00 0.00 0.00 0.00 0.00 0.00 0.00 0.00
0.00 0.00 0.00 0.00 0.00 0.00 0.00 0.00 0.00 0.00 0.00 0.00 0.00 0.00 0.00 0.00 0.00 0.00 0.00 0.00 0.00 0.00 0.00 0.00 0.00 0.00 0.00 0.00 0.00 0.00 0.00 0.00 0.00 0.00 0.00 0.00 0.00 0.00 0.00 0.00 0.00 0.00 0.00 0.00 0.00
0.00 0.00 0.00 0.00 0.00 0.00 0.00 0.00 0.00 0.00 0.00 0.00 0.00 0.00 0.00 0.00 0.00 0.00 0.00 0.00 0.00 0.00 0.00 0.00 0.00 0.00 0.00 0.00 0.00 0.00 0.00 0.00 0.00 0.00 0.00 0.00 0.00 0.00 0.00 0.00 0.00 0.00 0.00 0.00 0.00
0.00 0.00 0.00 0.00 0.00 0.00 0.00 0.00 0.00 0.00 0.00 0.00 0.00 0.00 0.00 0.00 0.00 0.00 0.00 0.00 0.00 0.00 0.00 0.00 0.00 0.00 0.00 0.00 0.00 0.00 0.00 0.00 0.00 0.00 0.00 0.00 0.00 0.00 0.00 0.00 0.00 0.00 0.00 0.00 0.00
0.00 0.00 0.00 0.00 0.00 0.00 0.00 0.00 0.00 0.00 0.00 0.00 0.00 0.00 0.00 0.00 0.00 0.00 0.00 0.00 0.00 0.00 0.00 0.00 0.00 0.00 0.00 0.00 0.00 0.00 0.00 0.00 0.00 0.00 0.00 0.00 0.00 0.00 0.00 0.00 0.00 0.00 0.00 0.00 0.00
0.00 0.00 0.00 0.00 0.00 0.00 0.00 0.00 0.00 0.00 0.00 0.00 0.00 0.00 0.00 0.00 0.00 0.00 0.00 0.00 0.00 0.00 0.00 0.00 0.00 0.00 0.00 0.00 0.00 0.00 0.00 0.00 0.00 0.00 0.00 0.00 0.00 0.00 0.00 0.00 0.00 0.00 0.00 0.00 0.00
0.00 0.00 0.00 0.00 0.00 0.00 0.00 0.00 0.00 0.00 0.00 0.00 0.00 0.00 0.00 0.00 0.00 0.00 0.00 0.00 0.00 0.00 0.00 0.00 0.00 0.00 0.00 0.00 0.00 0.00 0.00 0.00 0.00 0.00 0.00 0.00 0.00 0.00 0.00 0.00 0.00 0.00 0.00 0.00 0.00
0.00 0.00 0.00 0.00 0.00 0.00 0.00 0.00 0.00 0.00 0.00 0.00 0.00 0.00 0.00 0.00 0.00 0.00 0.00 0.00 0.00 0.00 0.00 0.00 0.00 0.00 0.00 0.00 0.00 0.00 0.00 0.00 0.00 0.00 0.00 0.00 0.00 0.00 0.00 0.00 0.00 0.00 0.00 0.00 0.00
0.00 0.00 0.00 0.00 0.00 0.00 0.00 0.00 0.00 0.00 0.00 0.00 0.00 0.00 0.00 0.00 0.00 0.00 0.00 0.00 0.00 0.00 0.00 0.00 0.00 0.00 0.00 0.00 0.00 0.00 0.00 0.00 0.00 0.00 0.00 0.00 0.00 0.00 0.00 0.00 0.00 0.00 0.00 0.00 0.00
0.00 0.00 0.00 0.00 0.00 0.00 0.00 0.00 0.00 0.00 0.00 0.00 0.00 0.00 0.00 0.00 0.00 0.00 0.00 0.00 0.00 0.00 0.00 0.00 0.00 0.00 0.00 0.00 0.00 0.00 0.00 0.00 0.00 0.00 0.00 0.00 0.00 0.00 0.00 0.00 0.00 0.00 0.00 0.00 0.00
0.00 0.00 0.00 0.00 0.00 0.00 0.00 0.00 0.00 0.00 0.00 0.00 0.00 0.00 0.00 0.00 0.00 0.00 0.00 0.00 0.00 0.00 0.00 0.00 0.00 0.00 0.00 0.00 0.00 0.00 0.00 0.00 0.00 0.00 0.00 0.00 0.00 0.00 0.00 0.00 0.00 0.00 0.00 0.00 0.00
0.00 0.00 0.00 0.00 0.00 0.00 0.00 0.00 0.00 0.00 0.00 0.00 0.00 0.00 0.00 0.00 0.00 0.00 0.00 0.00 0.00 0.00 0.00 0.00 0.00 0.00 0.00 0.00 0.00 0.00 0.00 0.00 0.00 0.00 0.00 0.00 0.00 0.00 0.00 0.00 0.00 0.00 0.00 0.00 0.00
0.00 0.00 0.00 0.00 0.00 0.00 0.00 0.00 0.00 0.00 0.00 0.00 0.00 0.00 0.00 0.00 0.00 0.00 0.00 0.00 0.00 0.00 0.00 0.00 0.00 0.00 0.00 0.00 0.00 0.00 0.00 0.00 0.00 0.00 0.00 0.00 0.00 0.00 0.00 0.00 0.00 0.00 0.00 0.00 0.00
0.00 0.00 0.00 0.00 0.00 0.00 0.00 0.00 0.00 0.00 0.00 0.00 0.00 0.00 0.00 0.00 0.00 0.00 0.00 0.00 0.00 0.00 0.00 0.00 0.00 0.00 0.00 0.00 0.00 0.00 0.00 0.00 0.00 0.00 0.00 0.00 0.00 0.00 0.00 0.00 0.00 0.00 0.00 0.00 0.00
0.00 0.00 0.00 0.00 0.00 0.00 0.00 0.00 0.00 0.00 0.00 0.00 0.00 0.00 0.00 0.00 0.00 0.00 0.00 0.00 0.00 0.00 0.00 0.00 0.00 0.00 0.00 0.00 0.00 0.00 0.00 0.00 0.00 0.00 0.00 0.00 0.00 0.00 0.00 0.00 0.00 0.00 0.00 0.00 0.00
0.00 0.00 0.00 0.00 0.00 0.00 0.00 0.00 0.00 0.00 0.00 0.00 0.00 0.00 0.00 0.00 0.00 0.00 0.00 0.00 0.00 0.00 0.00 0.00 0.00 0.00 0.00 0.00 0.00 0.00 0.00 0.00 0.00 0.00 0.00 0.00 0.00 0.00 0.00 0.00 0.00 0.00 0.00 0.00 0.00
0.00 0.00 0.00 0.00 0.00 0.00 0.00 0.00 0.00 0.00 0.00 0.00 0.00 0.00 0.00 0.00 0.00 0.00 0.00 0.00 0.00 0.00 0.00 0.00 0.00 0.00 0.00 0.00 0.00 0.00 0.00 0.00 0.00 0.00 0.00 0.00 0.00 0.00 0.00 0.00 0.00 0.00 0.00 0.00 0.00
0.00 0.00 0.00 0.00 0.00 0.00 0.00 0.00 0.00 0.00 0.00 0.00 0.00 0.00 0.00 0.00 0.00 0.00 0.00 0.00 0.00 0.00 0.00 0.00 0.00 0.00 0.00 0.00 0.00 0.00 0.00 0.00 0.00 0.00 0.00 0.00 0.00 0.00 0.00 0.00 0.00 0.00 0.00 0.00 0.00
0.00 0.00 0.00 0.00 0.00 0.00 0.00 0.00 0.00 0.00 0.00 0.00 0.00 0.00 0.00 0.00 0.00 0.00 0.00 0.00 0.00 0.00 0.00 0.00 0.00 0.00 0.00 0.00 0.00 0.00 0.00 0.00 0.00 0.00 0.00 0.00 0.00 0.00 0.00 0.00 0.00 0.00 0.00 0.00 0.00
0.00 0.00 0.00 0.00 0.00 0.00 0.00 0.00 0.00 0.00 0.00 0.00 0.00 0.00 0.00 0.00 0.00 0.00 0.00 0.00 0.00 0.00 0.00 0.00 0.00 0.00 0.00 0.00 0.00 0.00 0.00 0.00 0.00 0.00 0.00 0.00 0.00 0.00 0.00 0.00 0.00 0.00 0.00 0.00 0.00
0.00 0.00 0.00 0.00 0.00 0.00 0.00 0.00 0.00 0.00 0.00 0.00 0.00 0.00 0.00 0.00 0.00 0.00 0.00 0.00 0.00 0.00 0.00 0.00 0.00 0.00 0.00 0.00 0.00 0.00 0.00 0.00 0.00 0.00 0.00 0.00 0.00 0.00 0.00 0.00 0.00 0.00 0.00 0.00 0.00
0.00 0.00 0.00 0.00 0.00 0.00 0.00 0.00 0.00 0.00 0.00 0.00 0.00 0.00 0.00 0.00 0.00 0.00 0.00 0.00 0.00 0.00 0.00 0.00 0.00 0.00 0.00 0.00 0.00 0.00 0.00 0.00 0.00 0.00 0.00 0.00 0.00 0.00 0.00 0.00 0.00 0.00 0.00 0.00 0.00
0.00 0.00 0.00 0.00 0.00 0.00 0.00 0.00 0.00 0.00 0.00 0.00 0.00 0.00 0.00 0.00 0.00 0.00 0.00 0.00 0.00 0.00 0.00 0.00 0.00 0.00 0.00 0.00 0.00 0.00 0.00 0.00 0.00 0.00 0.00 0.00 0.00 0.00 0.00 0.00 0.00 0.00 0.00 0.00 0.00
0.00 0.00 0.00 0.00 0.00 0.00 0.00 0.00 0.00 0.00 0.00 0.00 0.00 0.00 0.00 0.00 0.00 0.00 0.00 0.00 0.00 0.00 0.00 0.00 0.00 0.00 0.00 0.00 0.00 0.00 0.00 0.00 0.00 0.00 0.00 0.00 0.00 0.00 0.00 0.00 0.00 0.00 0.00 0.00 0.00
0.00 0.00 0.00 0.00 0.00 0.00 0.00 0.00 0.00 0.00 0.00 0.00 0.00 0.00 0.00 0.00 0.00 0.00 0.00 0.00 0.00 0.00 0.00 0.00 0.00 0.00 0.00 0.00 0.00 0.00 0.00 0.00 0.00 0.00 0.00 0.00 0.00 0.00 0.00 0.00 0.00 0.00 0.00 0.00 0.00
0.00 0.00 0.00 0.00 0.00 0.00 0.00 0.00 0.00 0.00 0.00 0.00 0.00 0.00 0.00 0.00 0.00 0.00 0.00 0.00 0.00 0.00 0.00 0.00 0.00 0.00 0.00 0.00 0.00 0.00 0.00 0.00 0.00 0.00 0.00 0.00 0.00 0.00 0.00 0.00 0.00 0.00 0.00 0.00 0.00
0.00 0.00 0.00 0.00 0.00 0.00 0.00 0.00 0.00 0.00 0.00 0.00 0.00 0.00 0.00 0.00 0.00 0.00 0.00 0.00 0.00 0.00 0.00 0.00 0.00 0.00 0.00 0.00 0.00 0.00 0.00 0.00 0.00 0.00 0.00 0.00 0.00 0.00 0.00 0.00 0.00 0.00 0.00 0.00 0.00
MSLP
1017.43 1016.98 1016.59 1016.18 1015.74 1015.32 1014.95 1014.61 1014.26 1013.95 1013.67 1013.40 1013.14 1012.83 1012.58 1012.36 1011.97 1011.96 1010.96 1009.04 1008.95 1009.04 1009.31 1009.49 1009.80 1009.81 1009.89 1010.27 1010.44 1010.98 1012.38 1012.96 1011.76 1010.60 1009.17 1008.20 1008.06 1006.92 1006.58 1007.05 1007.35 1007.54 1007.22 1006.77 1007.55
1017.55 1017.03 1016.57 1016.14 1015.71 1015.29 1014.85 1014.47 1014.13 1013.83 1013.54 1013.29 1013.03 1012.70 1012.45 1012.25 1011.84 1010.74 1008.32 1008.29 1008.68 1008.99 1009.41 1009.44 1009.65 1009.69 1010.08 1010.27 1010.50 1011.04 1012.14 1011.87 1010.66 1009.59 1008.92 1008.27 1007.98 1007.24 1006.94 1007.28 1007.35 1007.36 1007.10 1007.22 1008.09
1017.65 1017.04 1016.48 1016.00 1015.55 1015.16 1014.77 1014.34 1013.91 1013.58 1013.31 1013.07 1012.87 1012.55 1012.32 1012.16 1011.44 1008.87 1007.60 1007.94 1008.50 1008.90 1009.30 1009.35 1009.50 1009.68 1010.08 1010.18 1010.26 1010.74 1011.06 1010.64 1009.56 1009.24 1008.91 1008.38 1007.67 1007.23 1007.09 1007.46 1007.19 1007.19 1007.31 1007.70 1008.40
1017.75 1017.11 1016.45 1015.88 1015.37 1014.94 1014.58 1014.18 1013.74 1013.35 1013.09 1012.87 1012.69 1012.42 1012.07 1011.93 1010.51 1007.82 1007.34 1007.75 1008.37 1008.99 1009.47 1009.48 1009.65 1010.01 1010.25 1010.15 1009.83 1010.24 1009.86 1009.73 1008.86 1008.37 1008.51 1007.94 1007.31 1006.82 1007.01 1007.25 1006.87 1007.07 1006.76 1007.66 1008.65
1017.71 1017.10 1016.46 1015.81 1015.19 1014.63 1014.21 1013.90 1013.55 1013.18 1012.91 1012.68 1012.46 1012.28 1012.05 1011.39 1009.53 1007.48 1007.60 1007.99 1008.65 1009.19 1009.44 1009.61 1009.86 1009.92 1009.91 1009.77 1009.71 1009.77 1009.30 1008.97 1008.35 1007.98 1007.96 1007.36 1007.24 1006.75 1006.57 1006.68 1006.58 1007.46 1007.98 1008.05 1008.73
1017.67 1017.05 1016.34 1015.61 1014.96 1014.37 1013.82 1013.47 1013.18 1012.87 1012.71 1012.52 1012.33 1012.24 1011.89 1010.77 1007.72 1007.43 1007.73 1008.36 1008.48 1008.98 1009.11 1009.34 1009.27 1009.39 1009.53 1009.48 1009.53 1009.23 1008.98 1008.67 1008.08 1007.60 1007.30 1007.25 1007.11 1006.69 1006.41 1006.73 1007.22 1007.90 1008.25 1008.44 1008.59
1017.57 1016.86 1016.16 1015.45 1014.76 1014.06 1013.46 1012.98 1012.69 1012.49 1012.32 1012.24 1012.28 1012.17 1011.49 1009.09 1007.61 1007.64 1007.86 1007.99 1008.20 1008.36 1008.56 1008.49 1008.57 1009.01 1009.13 1009.33 1009.19 1009.01 1009.01 1008.34 1007.93 1007.50 1007.17 1007.06 1007.21 1007.00 1006.34 1006.50 1007.61 1007.82 1008.10 1008.44 1008.54
1017.39 1016.63 1015.89 1015.18 1014.44 1013.65 1013.02 1012.51 1012.17 1012.02 1011.92 1011.88 1011.97 1011.98 1010.61 1007.93 1007.60 1007.61 1007.85 1007.87 1007.85 1008.03 1008.15 1008.05 1008.20 1008.69 1009.00 1009.22 1009.34 1009.48 1009.33 1008.93 1007.91 1007.35 1006.96 1006.84 1007.07 1006.60 1006.43 1006.81 1007.08 1007.80 1008.06 1008.06 1008.15
1017.21 1016.39 1015.67 1014.86 1013.97 1013.12 1012.51 1012.00 1011.64 1011.69 1011.70 1011.81 1011.96 1011.52 1009.68 1007.80 1007.62 1007.11 1007.38 1007.57 1007.65 1007.90 1007.93 1008.01 1008.37 1009.06 1009.38 1009.99 1010.47 1010.42 1009.95 1009.38 1008.38 1007.38 1007.28 1007.29 1007.23 1006.08 1006.26 1006.70 1007.10 1007.12 1007.69 1007.70 1007.80
1017.12 1016.10 1015.28 1014.47 1013.61 1012.73 1012.15 1011.66 1011.42 1011.54 1011.77 1011.69 1011.31 1011.26 1008.85 1007.28 1006.67 1006.67 1006.83 1007.29 1007.87 1008.00 1008.18 1008.32 1009.19 1009.75 1010.64 1010.93 1011.11 1010.68 1010.26 1009.58 1009.00 1007.69 1007.55 1007.57 1007.56 1006.61 1006.35 1006.60 1006.74 1007.09 1007.18 1007.64 1007.40
1016.94 1015.95 1014.98 1014.07 1013.22 1012.45 1011.89 1011.66 1011.78 1011.51 1011.19 1010.22 1009.49 1008.73 1007.44 1006.44 1006.03 1006.38 1006.63 1007.36 1008.07 1008.45 1008.82 1009.06 1010.10 1010.16 1010.29 1010.56 1010.53 1010.52 1010.33 1010.03 1008.82 1007.74 1007.76 1007.73 1007.76 1007.09 1006.61 1006.61 1007.01 1007.20 1007.30 1007.11 1006.95
1016.85 1015.82 1014.74 1013.71 1012.88 1012.23 1012.00 1011.40 1011.20 1011.00 1009.95 1008.48 1007.57 1007.07 1006.38 1006.36 1006.49 1005.96 1006.28 1007.57 1008.12 1008.75 1009.19 1009.76 1009.67 1009.25 1009.64 1009.87 1010.11 1010.09 1010.12 1009.68 1008.86 1007.94 1007.82 1007.61 1007.68 1007.28 1006.91 1006.77 1006.94 1007.14 1007.44 1007.25 1007.28
1016.83 1015.78 1014.55 1013.31 1012.50 1012.18 1011.98 1010.90 1010.28 1010.15 1010.09 1007.17 1006.40 1005.92 1005.61 1006.26 1006.43 1005.71 1006.16 1006.62 1007.42 1008.46 1008.93 1009.47 1008.35 1008.70 1009.17 1009.39 1009.57 1009.10 1009.37 1009.02 1008.74 1007.91 1007.99 1007.93 1008.07 1007.98 1007.40 1007.31 1007.03 1007.05 1007.26 1007.49 1007.48
1016.52 1015.60 1014.87 1013.22 1012.42 1012.65 1011.45 1010.28 1009.88 1009.84 1009.94 1007.37 1005.60 1004.48 1004.84 1005.09 1005.40 1004.77 1005.10 1006.04 1007.12 1007.64 1008.48 1008.87 1008.05 1008.35 1008.64 1008.75 1008.65 1008.64 1007.99 1008.29 1008.45 1008.81 1009.08 1008.82 1009.22 1008.96 1008.43 1008.02 1008.15 1008.34 1008.43 1008.39 1007.98
1016.24 1015.47 1014.52 1014.12 1013.63 1012.69 1011.32 1010.33 1009.90 1009.91 1009.72 1006.03 1004.54 1003.40 1004.23 1004.72 1004.29 1004.42 1004.41 1005.41 1006.42 1007.26 1008.11 1008.14 1007.88 1007.85 1008.05 1008.07 1007.77 1007.93 1007.67 1008.22 1008.61 1009.28 1009.92 1010.02 1010.31 1009.29 1008.89 1008.92 1009.46 1009.55 1009.32 1008.94 1008.44
1016.03 1014.89 1014.49 1014.09 1013.85 1011.96 1011.05 1010.27 1010.17 1010.96 1008.98 1006.00 1004.74 1004.33 1004.73 1004.54 1004.44 1004.21 1004.60 1004.87 1005.77 1006.99 1007.52 1007.54 1007.20 1007.22 1007.01 1007.17 1007.47 1007.65 1008.11 1008.98 1009.90 1010.41 1011.00 1010.78 1010.74 1010.53 1009.95 1010.31 1010.36 1010.10 1009.85 1009.30 1008.47
1015.52 1014.29 1014.02 1013.39 1012.47 1011.46 1010.85 1010.95 1011.67 1010.75 1008.35 1007.46 1006.44 1005.98 1005.52 1005.62 1005.57 1005.41 1005.36 1005.98 1006.80 1007.80 1008.16 1007.91 1007.43 1007.08 1006.96 1007.45 1007.82 1008.22 1009.45 1010.72 1011.53 1012.05 1012.23 1011.57 1011.53 1011.39 1011.28 1011.00 1010.72 1010.79 1010.49 1009.85 1009.00
1015.28 1013.83 1013.38 1012.44 1011.64 1011.49 1011.55 1012.22 1012.34 1010.58 1009.54 1008.56 1007.77 1007.19 1007.08 1007.05 1007.06 1006.91 1006.79 1007.59 1008.24 1008.66 1009.12 1009.13 1008.48 1007.93 1007.68 1007.86 1008.51 1009.26 1010.17 1011.62 1012.62 1013.38 1013.34 1012.38 1012.18 1011.97 1011.91 1011.70 1011.32 1011.13 1011.04 1010.48 1009.87
1015.32 1013.92 1013.28 1012.19 1011.60 1011.62 1012.52 1013.25 1012.32 1011.49 1010.72 1009.94 1008.90 1008.68 1008.71 1008.45 1008.30 1008.19 1008.76 1009.42 1009.86 1009.82 1010.28 1010.29 1009.75 1009.04 1008.85 1008.74 1008.95 1009.97 1010.96 1011.77 1013.03 1013.94 1014.19 1013.37 1012.76 1012.65 1012.44 1012.05 1011.83 1011.82 1011.58 1011.22 1010.68
1016.95 1015.76 1013.42 1011.91 1011.59 1012.12 1013.33 1013.29 1012.53 1011.57 1011.04 1010.67 1010.73 1010.57 1010.46 1010.40 1009.89 1009.72 1009.99 1010.80 1010.90 1010.88 1010.90 1011.28 1011.05 1010.43 1010.01 1009.65 1010.16 1010.63 1011.59 1012.78 1014.26 1015.17 1015.21 1014.30 1013.67 1013.09 1013.77 1013.65 1013.06 1012.69 1012.63 1012.30 1011.67
1017.35 1015.88 1012.96 1012.05 1011.95 1013.27 1014.06 1013.68 1012.49 1011.72 1011.38 1011.45 1011.68 1011.85 1012.08 1012.11 1011.82 1011.63 1012.03 1012.26 1012.02 1012.35 1012.14 1012.65 1012.82 1012.05 1011.06 1011.64 1012.06 1012.25 1012.76 1013.96 1015.24 1016.13 1016.37 1015.97 1014.84 1014.42 1014.98 1015.04 1014.72 1014.24 1013.83 1013.23 1012.58
1019.08 1017.09 1013.35 1012.45 1013.82 1015.12 1014.86 1014.09 1012.95 1012.19 1011.82 1011.89 1012.15 1012.68 1012.96 1013.02 1012.96 1012.92 1013.67 1013.72 1013.28 1013.23 1013.80 1014.39 1014.53 1014.39 1013.58 1013.07 1012.87 1013.08 1014.43 1015.40 1016.72 1017.58 1017.64 1017.16 1015.80 1015.27 1015.07 1015.20 1015.23 1015.20 1014.91 1014.25 1013.47
1020.74 1018.99 1014.64 1013.99 1015.91 1016.41 1015.44 1014.30 1013.31 1012.55 1012.56 1012.48 1013.06 1013.13 1013.45 1013.78 1014.00 1013.81 1014.10 1014.53 1014.22 1014.33 1014.85 1015.14 1016.15 1016.23 1015.52 1014.94 1014.27 1014.62 1015.33 1016.07 1017.19 1018.03 1017.96 1017.80 1016.16 1015.54 1015.47 1015.57 1015.52 1015.36 1014.97 1014.57 1013.84
1021.33 1020.42 1018.25 1017.49 1018.03 1017.65 1016.68 1015.22 1013.85 1012.78 1012.95 1012.98 1013.45 1013.73 1014.05 1014.48 1014.62 1014.81 1014.94 1014.94 1015.01 1015.09 1015.44 1015.86 1016.85 1017.03 1016.68 1016.10 1015.86 1015.88 1015.96 1016.40 1017.17 1018.38 1017.98 1017.34 1016.39 1016.02 1015.89 1015.73 1015.53 1015.36 1015.16 1014.83 1014.56
1022.14 1022.22 1021.67 1020.33 1019.01 1018.85 1017.89 1016.40 1014.90 1013.64 1013.44 1013.40 1013.95 1014.25 1014.43 1014.93 1015.20 1015.46 1015.77 1015.86 1015.78 1015.92 1016.39 1017.12 1017.79 1017.72 1017.28 1016.82 1016.60 1016.52 1016.46 1016.60 1017.15 1017.38 1017.96 1017.14 1016.79 1016.42 1016.40 1016.42 1016.23 1016.04 1015.73 1015.35 1014.99
1023.22 1023.23 1022.50 1021.61 1020.25 1019.36 1018.41 1017.45 1016.38 1015.31 1014.22 1014.20 1014.39 1014.70 1014.84 1015.18 1015.35 1015.72 1015.97 1016.34 1016.46 1016.52 1017.10 1017.95 1018.40 1018.51 1018.37 1017.52 1017.05 1016.73 1016.36 1016.29 1016.43 1016.64 1016.83 1016.91 1016.67 1016.21 1016.26 1016.40 1016.46 1016.29 1015.94 1015.45 1014.91
1023.70 1023.41 1023.41 1022.12 1021.12 1020.18 1019.38 1018.56 1017.31 1016.52 1015.60 1015.13 1015.10 1015.07 1015.03 1014.91 1015.07 1015.27 1015.60 1015.98 1016.13 1016.66 1017.58 1018.32 1018.85 1019.57 1019.33 1018.49 1017.59 1016.84 1015.80 1015.72 1015.91 1016.09 1016.43 1016.82 1016.79 1016.82 1016.65 1016.53 1016.30 1016.02 1015.77 1015.35 1015.03
Thickness
5724 5727 5729 5732 5736 5739 5741 5744 5747 5749 5751 5753 5754 5756 5758 5759 5763 5763 5765 5783 5785 5786 5784 5782 5779 5779 5779 5770 5773 5767 5729 5721 5747 5754 5769 5779 5771 5795 5808 5796 5801 5806 5807 5821 5822
5722 5725 5729 5731 5734 5738 5741 5744 5746 5748 5750 5752 5754 5756 5758 5759 5762 5764 5790 5790 5787 5785 5778 5773 5770 5773 5760 5764 5764 5750 5725 5734 5755 5769 5770 5772 5774 5781 5788 5786 5790 5799 5809 5816 5812
5720 5724 5728 5731 5734 5737 5740 5743 5746 5749 5751 5752 5753 5755 5757 5758 5760 5774 5795 5792 5787 5784 5779 5777 5774 5769 5758 5762 5761 5751 5735 5749 5762 5765 5770 5771 5775 5784 5776 5770 5787 5790 5798 5804 5801
5719 5723 5728 5731 5735 5738 5740 5743 5746 5749 5751 5752 5753 5754 5756 5757 5745 5786 5794 5791 5786 5781 5774 5770 5764 5755 5748 5749 5760 5748 5756 5760 5768 5774 5771 5768 5781 5782 5774 5775 5796 5799 5807 5802 5792
5718 5722 5726 5731 5735 5739 5742 5744 5746 5749 5751 5752 5753 5753 5754 5750 5756 5789 5789 5786 5781 5774 5766 5761 5753 5752 5747 5752 5756 5751 5758 5765 5770 5771 5770 5777 5770 5777 5780 5785 5793 5793 5791 5792 5788
5716 5720 5726 5731 5736 5740 5744 5746 5748 5750 5750 5751 5751 5751 5751 5738 5784 5786 5784 5778 5776 5769 5764 5760 5757 5757 5750 5750 5749 5758 5759 5760 5767 5770 5772 5765 5769 5779 5783 5780 5776 5777 5780 5783 5783
5715 5720 5726 5731 5736 5742 5746 5749 5751 5752 5752 5751 5749 5749 5746 5753 5783 5780 5779 5775 5774 5771 5762 5765 5765 5756 5753 5743 5754 5755 5747 5754 5762 5768 5768 5766 5758 5761 5782 5781 5763 5766 5772 5777 5778
5714 5720 5726 5732 5737 5743 5748 5752 5754 5753 5753 5752 5749 5746 5741 5778 5778 5775 5774 5770 5772 5770 5766 5769 5766 5755 5749 5750 5740 5735 5734 5723 5747 5758 5762 5762 5733 5761 5770 5767 5768 5759 5763 5768 5770
5713 5720 5726 5732 5739 5745 5750 5753 5755 5753 5751 5749 5746 5744 5740 5775 5767 5775 5772 5762 5764 5762 5761 5763 5756 5739 5736 5717 5704 5710 5706 5716 5725 5750 5749 5751 5739 5764 5765 5761 5758 5763 5759 5763 5764
5711 5720 5726 5732 5739 5745 5749 5752 5752 5749 5746 5744 5746 5734 5751 5759 5770 5771 5771 5763 5750 5749 5744 5741 5723 5716 5702 5695 5676 5691 5702 5710 5710 5734 5738 5731 5732 5750 5760 5756 5757 5757 5759 5756 5762
5710 5718 5725 5732 5738 5743 5747 5746 5741 5737 5741 5743 5744 5746 5755 5768 5775 5764 5763 5750 5742 5733 5712 5719 5701 5692 5701 5701 5705 5706 5703 5697 5712 5730 5729 5724 5725 5740 5748 5755 5751 5750 5751 5752 5758
5708 5715 5722 5731 5736 5740 5740 5741 5737 5737 5729 5749 5754 5755 5760 5759 5742 5752 5758 5730 5720 5703 5710 5700 5690 5707 5710 5709 5701 5697 5690 5691 5706 5721 5720 5725 5725 5735 5743 5747 5749 5747 5745 5748 5751
5704 5711 5719 5729 5734 5735 5733 5735 5740 5738 5716 5745 5751 5748 5748 5744 5731 5738 5741 5731 5718 5700 5699 5686 5706 5712 5706 5698 5690 5693 5688 5693 5697 5718 5718 5718 5707 5717 5733 5739 5744 5747 5743 5742 5742
5702 5707 5712 5722 5728 5721 5726 5734 5734 5731 5682 5712 5733 5744 5747 5742 5725 5748 5746 5729 5711 5698 5693 5687 5707 5702 5694 5688 5695 5680 5706 5706 5706 5691 5675 5703 5662 5693 5713 5719 5723 5718 5723 5725 5732
5697 5701 5706 5707 5707 5712 5721 5725 5726 5715 5649 5725 5732 5758 5741 5729 5737 5730 5743 5724 5701 5699 5691 5687 5697 5691 5683 5689 5704 5689 5708 5701 5703 5688 5676 5679 5661 5677 5703 5703 5696 5702 5710 5715 5722
5690 5697 5698 5699 5696 5708 5712 5715 5709 5663 5646 5707 5724 5722 5716 5722 5724 5729 5723 5728 5717 5696 5693 5693 5706 5699 5695 5703 5699 5703 5696 5679 5668 5663 5645 5670 5667 5664 5680 5683 5683 5692 5698 5707 5716
5685 5692 5692 5693 5698 5702 5703 5692 5653 5637 5692 5685 5691 5697 5699 5691 5694 5702 5703 5693 5677 5661 5662 5678 5685 5697 5698 5683 5686 5681 5660 5634 5635 5631 5633 5662 5657 5656 5669 5674 5679 5680 5687 5694 5704
5676 5685 5684 5687 5690 5689 5684 5657 5635 5659 5665 5680 5681 5680 5672 5674 5676 5677 5677 5665 5666 5664 5650 5648 5650 5676 5686 5678 5671 5667 5656 5626 5619 5616 5626 5652 5638 5647 5663 5664 5672 5675 5676 5684 5690
5663 5670 5672 5675 5677 5675 5654 5623 5628 5642 5651 5651 5661 5653 5650 5661 5665 5664 5656 5646 5648 5648 5640 5635 5644 5669 5670 5671 5672 5660 5638 5652 5627 5621 5608 5625 5644 5642 5650 5651 5656 5659 5664 5668 5675
5639 5641 5655 5665 5663 5652 5626 5616 5627 5641 5643 5642 5627 5632 5625 5634 5640 5644 5640 5635 5635 5637 5641 5634 5628 5646 5656 5664 5655 5650 5650 5625 5606 5606 5599 5611 5628 5629 5621 5625 5635 5639 5641 5648 5657
5624 5633 5650 5652 5649 5624 5605 5607 5625 5633 5633 5622 5615 5612 5609 5607 5616 5621 5613 5614 5621 5619 5622 5614 5613 5624 5643 5627 5620 5622 5617 5613 5603 5592 5581 5582 5597 5614 5604 5604 5608 5615 5623 5630 5638
5594 5614 5636 5638 5609 5590 5596 5603 5613 5617 5619 5614 5609 5604 5599 5600 5602 5605 5588 5593 5606 5606 5598 5597 5588 5588 5605 5613 5619 5618 5598 5585 5566 5580 5566 5567 5575 5597 5594 5596 5595 5595 5600 5608 5618
5571 5574 5617 5617 5582 5578 5585 5595 5601 5602 5600 5599 5592 5598 5597 5591 5587 5594 5589 5590 5594 5591 5584 5588 5560 5553 5570 5583 5595 5587 5586 5583 5564 5544 5558 5553 5564 5584 5584 5581 5580 5582 5588 5589 5598
5563 5566 5574 5575 5563 5570 5569 5580 5584 5595 5588 5591 5584 5582 5579 5575 5576 5574 5574 5579 5581 5579 5576 5568 5551 5556 5549 5566 5569 5568 5571 5572 5558 5509 5547 5550 5566 5571 5565 5564 5565 5568 5569 5573 5576
5546 5545 5541 5541 5556 5547 5556 5564 5570 5575 5579 5578 5572 5572 5571 5565 5562 5558 5559 5560 5564 5564 5556 5548 5544 5548 5552 5556 5556 5554 5558 5561 5551 5548 5533 5555 5549 5555 5553 5547 5546 5548 5549 5552 5553
5529 5523 5522 5523 5536 5543 5546 5550 5553 5555 5567 5563 5559 5558 5556 5551 5555 5552 5553 5549 5549 5552 5544 5527 5526 5536 5537 5545 5545 5544 5549 5548 5547 5547 5539 5538 5540 5549 5544 5539 5533 5526 5527 5534 5539
5511 5513 5506 5515 5522 5532 5531 5533 5543 5544 5553 5553 5550 5548 5549 5552 5552 5552 5550 5547 5546 5542 5525 5524 5510 5495 5508 5529 5533 5524 5541 5541 5543 5545 5542 5532 5532 5523 5523 5521 5520 5516 5511 5515 5518